Time,TemperatureF,DewpointF,PressureIn,WindDirection,WindDirectionDegrees,WindSpeedMPH,WindSpeedGustMPH,Humidity,HourlyPrecipIn,Conditions,Clouds,dailyrainin,SolarRadiationWatts/m^2,SoftwareType,DateUTC
2013-02-25 00:03:00,58.1,57.0,29.88,ENE,67,1.0,3.0,96,0.28,,,-99.99,0,WeatherLink 5.6,2013-02-25 06:03:00,
2013-02-25 00:09:00,58.2,57.1,29.90,South,180,1.0,2.0,96,0.33,,,-99.99,0,WeatherLink 5.6,2013-02-25 06:09:00,
2013-02-25 00:15:00,58.3,57.2,29.88,ESE,112,2.0,2.0,96,0.45,,,-99.99,0,WeatherLink 5.6,2013-02-25 06:15:00,
2013-02-25 00:20:00,58.4,57.3,29.86,NE,45,3.0,4.0,96,0.54,,,-99.99,0,WeatherLink 5.6,2013-02-25 06:20:00,
2013-02-25 00:26:00,58.6,57.8,29.87,ENE,67,1.0,5.0,97,0.60,,,-99.99,0,WeatherLink 5.6,2013-02-25 06:26:00,
2013-02-25 00:32:00,58.6,57.8,29.86,NE,45,3.0,5.0,97,0.65,,,-99.99,0,WeatherLink 5.6,2013-02-25 06:32:00,
2013-02-25 00:38:00,58.6,57.5,29.87,SE,135,1.0,3.0,96,0.67,,,-99.99,0,WeatherLink 5.6,2013-02-25 06:38:00,
2013-02-25 00:44:00,58.6,57.5,29.86,ENE,67,2.0,5.0,96,0.70,,,-99.99,0,WeatherLink 5.6,2013-02-25 06:44:00,
2013-02-25 00:50:00,58.7,57.9,29.86,NE,45,2.0,4.0,97,0.71,,,-99.99,0,WeatherLink 5.6,2013-02-25 06:50:00,
2013-02-25 00:55:00,58.7,57.9,29.85,NE,45,1.0,2.0,97,0.68,,,-99.99,0,WeatherLink 5.6,2013-02-25 06:55:00,
2013-02-25 01:00:00,58.6,57.8,29.84,ENE,67,2.0,7.0,97,0.59,,,-99.99,0,WeatherLink 5.6,2013-02-25 07:00:00,
2013-02-25 01:06:00,58.7,57.9,29.84,NE,45,1.0,2.0,97,0.54,,,-99.99,0,WeatherLink 5.6,2013-02-25 07:06:00,
2013-02-25 01:11:00,58.7,57.9,29.83,NE,45,1.0,3.0,97,0.47,,,-99.99,0,WeatherLink 5.6,2013-02-25 07:11:00,
2013-02-25 01:16:00,58.6,57.8,29.83,East,90,2.0,5.0,97,0.32,,,-99.99,0,WeatherLink 5.6,2013-02-25 07:16:00,
2013-02-25 01:21:00,58.6,57.8,29.83,NE,45,4.0,7.0,97,0.22,,,-99.99,0,WeatherLink 5.6,2013-02-25 07:21:00,
2013-02-25 01:27:00,58.5,57.7,29.82,ESE,112,2.0,4.0,97,0.16,,,-99.99,0,WeatherLink 5.6,2013-02-25 07:27:00,
2013-02-25 01:32:00,58.6,57.8,29.82,NNE,22,4.0,8.0,97,0.12,,,-99.99,0,WeatherLink 5.6,2013-02-25 07:32:00,
2013-02-25 01:37:00,58.6,57.8,29.82,ENE,67,0.0,2.0,97,0.09,,,-99.99,0,WeatherLink 5.6,2013-02-25 07:37:00,
2013-02-25 01:42:00,58.6,57.8,29.81,ENE,67,2.0,6.0,97,0.04,,,-99.99,0,WeatherLink 5.6,2013-02-25 07:42:00,
2013-02-25 01:48:00,58.6,57.8,29.82,ENE,67,2.0,4.0,97,0.02,,,-99.99,0,WeatherLink 5.6,2013-02-25 07:48:00,
2013-02-25 01:54:00,58.6,57.8,29.82,ENE,67,1.0,2.0,97,0.01,,,-99.99,0,WeatherLink 5.6,2013-02-25 07:54:00,
2013-02-25 01:59:00,58.6,57.8,29.82,East,90,3.0,7.0,97,0.01,,,-99.99,0,WeatherLink 5.6,2013-02-25 07:59:00,
2013-02-25 02:04:00,58.6,57.8,29.82,ESE,112,4.0,8.0,97,0.02,,,-99.99,0,WeatherLink 5.6,2013-02-25 08:04:00,
2013-02-25 02:09:00,58.6,57.8,29.82,ENE,67,1.0,3.0,97,0.03,,,-99.99,0,WeatherLink 5.6,2013-02-25 08:09:00,
2013-02-25 02:15:00,58.5,57.7,29.81,East,90,2.0,4.0,97,0.05,,,-99.99,0,WeatherLink 5.6,2013-02-25 08:15:00,
2013-02-25 02:21:00,58.5,57.7,29.81,North,-999,0.0,0.0,97,0.06,,,-99.99,0,WeatherLink 5.6,2013-02-25 08:21:00,
2013-02-25 02:26:00,58.6,57.8,29.80,NNE,22,4.0,6.0,97,0.06,,,-99.99,0,WeatherLink 5.6,2013-02-25 08:26:00,
2013-02-25 02:32:00,58.6,57.8,29.78,NNE,22,5.0,9.0,97,0.06,,,-99.99,0,WeatherLink 5.6,2013-02-25 08:32:00,
2013-02-25 02:38:00,58.7,57.9,29.79,ESE,112,2.0,4.0,97,0.07,,,-99.99,0,WeatherLink 5.6,2013-02-25 08:38:00,
2013-02-25 02:43:00,58.8,58.2,29.78,ESE,112,2.0,5.0,98,0.07,,,-99.99,0,WeatherLink 5.6,2013-02-25 08:43:00,
2013-02-25 02:49:00,59.0,58.4,29.79,ESE,112,4.0,7.0,98,0.07,,,-99.99,0,WeatherLink 5.6,2013-02-25 08:49:00,
2013-02-25 02:54:00,59.1,58.5,29.79,SE,135,6.0,8.0,98,0.07,,,-99.99,0,WeatherLink 5.6,2013-02-25 08:54:00,
2013-02-25 02:59:00,59.1,58.5,29.77,ENE,67,2.0,3.0,98,0.07,,,-99.99,0,WeatherLink 5.6,2013-02-25 08:59:00,
2013-02-25 03:04:00,59.1,58.5,29.77,ESE,112,2.0,3.0,98,0.08,,,-99.99,0,WeatherLink 5.6,2013-02-25 09:04:00,
2013-02-25 03:09:00,59.2,58.6,29.78,ESE,112,2.0,4.0,98,0.08,,,-99.99,0,WeatherLink 5.6,2013-02-25 09:09:00,
2013-02-25 03:15:00,59.4,58.8,29.79,East,90,2.0,5.0,98,0.07,,,-99.99,0,WeatherLink 5.6,2013-02-25 09:15:00,
2013-02-25 03:21:00,59.5,58.9,29.80,ESE,112,2.0,3.0,98,0.06,,,-99.99,0,WeatherLink 5.6,2013-02-25 09:21:00,
2013-02-25 03:27:00,59.6,59.0,29.78,ESE,112,4.0,6.0,98,0.05,,,-99.99,0,WeatherLink 5.6,2013-02-25 09:27:00,
2013-02-25 03:32:00,60.0,59.4,29.81,WSW,247,1.0,3.0,98,0.06,,,-99.99,0,WeatherLink 5.6,2013-02-25 09:32:00,
2013-02-25 03:37:00,60.2,59.6,29.81,SSE,157,2.0,3.0,98,0.05,,,-99.99,0,WeatherLink 5.6,2013-02-25 09:37:00,
2013-02-25 03:43:00,60.4,59.8,29.79,NE,45,3.0,8.0,98,0.06,,,-99.99,0,WeatherLink 5.6,2013-02-25 09:43:00,
2013-02-25 03:49:00,60.6,60.0,29.79,ESE,112,1.0,3.0,98,0.07,,,-99.99,0,WeatherLink 5.6,2013-02-25 09:49:00,
2013-02-25 03:55:00,60.7,60.1,29.77,ESE,112,3.0,5.0,98,0.08,,,-99.99,0,WeatherLink 5.6,2013-02-25 09:55:00,
2013-02-25 04:01:00,60.8,60.2,29.77,East,90,2.0,6.0,98,0.09,,,-99.99,0,WeatherLink 5.6,2013-02-25 10:01:00,
2013-02-25 04:06:00,61.0,60.4,29.77,ESE,112,6.0,10.0,98,0.07,,,-99.99,0,WeatherLink 5.6,2013-02-25 10:06:00,
2013-02-25 04:12:00,61.1,60.5,29.74,ENE,67,4.0,7.0,98,0.07,,,-99.99,0,WeatherLink 5.6,2013-02-25 10:12:00,
2013-02-25 04:18:00,61.1,60.5,29.75,ENE,67,5.0,9.0,98,0.08,,,-99.99,0,WeatherLink 5.6,2013-02-25 10:18:00,
2013-02-25 04:24:00,61.0,60.4,29.75,ENE,67,5.0,8.0,98,0.09,,,-99.99,0,WeatherLink 5.6,2013-02-25 10:24:00,
2013-02-25 04:29:00,61.0,60.4,29.76,NE,45,3.0,7.0,98,0.12,,,-99.99,0,WeatherLink 5.6,2013-02-25 10:29:00,
2013-02-25 04:35:00,60.9,60.3,29.75,NE,45,5.0,7.0,98,0.14,,,-99.99,0,WeatherLink 5.6,2013-02-25 10:35:00,
2013-02-25 04:40:00,60.9,60.3,29.76,NE,45,4.0,9.0,98,0.15,,,-99.99,0,WeatherLink 5.6,2013-02-25 10:40:00,
2013-02-25 04:46:00,60.8,60.2,29.75,NNE,22,8.0,12.0,98,0.21,,,-99.99,0,WeatherLink 5.6,2013-02-25 10:46:00,
2013-02-25 04:51:00,60.6,60.0,29.73,NNE,22,9.0,14.0,98,0.26,,,-99.99,0,WeatherLink 5.6,2013-02-25 10:51:00,
2013-02-25 04:56:00,60.4,59.8,29.71,NE,45,10.0,15.0,98,0.30,,,-99.99,0,WeatherLink 5.6,2013-02-25 10:56:00,
2013-02-25 05:02:00,60.4,59.8,29.74,NNE,22,8.0,13.0,98,0.38,,,-99.99,0,WeatherLink 5.6,2013-02-25 11:02:00,
2013-02-25 05:07:00,60.4,59.8,29.79,NNE,22,1.0,2.0,98,0.52,,,-99.99,0,WeatherLink 5.6,2013-02-25 11:07:00,
2013-02-25 05:13:00,60.3,59.7,29.78,NNE,22,7.0,11.0,98,0.70,,,-99.99,0,WeatherLink 5.6,2013-02-25 11:13:00,
2013-02-25 05:19:00,60.2,59.6,29.75,NE,45,5.0,12.0,98,0.74,,,-99.99,0,WeatherLink 5.6,2013-02-25 11:19:00,
2013-02-25 05:24:00,60.3,59.7,29.77,ESE,112,3.0,5.0,98,0.74,,,-99.99,0,WeatherLink 5.6,2013-02-25 11:24:00,
2013-02-25 05:29:00,60.4,59.8,29.79,NW,315,3.0,4.0,98,0.71,,,-99.99,0,WeatherLink 5.6,2013-02-25 11:29:00,
2013-02-25 05:35:00,60.4,59.8,29.79,NNW,337,1.0,5.0,98,0.71,,,-99.99,0,WeatherLink 5.6,2013-02-25 11:35:00,
2013-02-25 05:40:00,60.3,59.7,29.80,East,90,1.0,2.0,98,0.69,,,-99.99,0,WeatherLink 5.6,2013-02-25 11:40:00,
2013-02-25 05:45:00,60.2,59.6,29.82,East,90,2.0,2.0,98,0.71,,,-99.99,0,WeatherLink 5.6,2013-02-25 11:45:00,
2013-02-25 05:51:00,60.2,59.6,29.82,NNE,22,3.0,5.0,98,0.66,,,-99.99,0,WeatherLink 5.6,2013-02-25 11:51:00,
2013-02-25 05:57:00,60.2,59.6,29.81,NNE,22,5.0,7.0,98,0.62,,,-99.99,0,WeatherLink 5.6,2013-02-25 11:57:00,
2013-02-25 06:02:00,60.2,59.6,29.81,NE,45,5.0,9.0,98,0.53,,,-99.99,0,WeatherLink 5.6,2013-02-25 12:02:00,
2013-02-25 06:08:00,60.2,59.6,29.82,North,0,5.0,9.0,98,0.35,,,-99.99,0,WeatherLink 5.6,2013-02-25 12:08:00,
2013-02-25 06:13:00,60.2,59.6,29.82,North,0,5.0,9.0,98,0.23,,,-99.99,0,WeatherLink 5.6,2013-02-25 12:13:00,
2013-02-25 06:19:00,59.9,59.3,29.82,NE,45,4.0,9.0,98,0.22,,,-99.99,0,WeatherLink 5.6,2013-02-25 12:19:00,
2013-02-25 06:25:00,59.8,59.2,29.85,NW,315,3.0,6.0,98,0.25,,,-99.99,0,WeatherLink 5.6,2013-02-25 12:25:00,
2013-02-25 06:30:00,59.8,59.2,29.81,ENE,67,7.0,12.0,98,0.29,,,-99.99,0,WeatherLink 5.6,2013-02-25 12:30:00,
2013-02-25 06:36:00,59.6,59.0,29.81,NE,45,5.0,9.0,98,0.28,,,-99.99,0,WeatherLink 5.6,2013-02-25 12:36:00,
2013-02-25 06:42:00,59.5,58.9,29.81,NNE,22,7.0,9.0,98,0.26,,,-99.99,0,WeatherLink 5.6,2013-02-25 12:42:00,
2013-02-25 06:47:00,59.5,58.9,29.82,NE,45,2.0,4.0,98,0.22,,,-99.99,0,WeatherLink 5.6,2013-02-25 12:47:00,
2013-02-25 06:52:00,59.4,58.8,29.80,NNE,22,7.0,10.0,98,0.20,,,-99.99,0,WeatherLink 5.6,2013-02-25 12:52:00,
2013-02-25 06:57:00,59.3,58.7,29.81,NE,45,8.0,14.0,98,0.24,,,-99.99,0,WeatherLink 5.6,2013-02-25 12:57:00,
2013-02-25 07:02:00,59.3,58.7,29.82,NNE,22,3.0,7.0,98,0.25,,,-99.99,0,WeatherLink 5.6,2013-02-25 13:02:00,
2013-02-25 07:08:00,59.3,58.7,29.83,NE,45,5.0,10.0,98,0.25,,,-99.99,0,WeatherLink 5.6,2013-02-25 13:08:00,
2013-02-25 07:14:00,59.4,58.8,29.82,NE,45,3.0,11.0,98,0.24,,,-99.99,0,WeatherLink 5.6,2013-02-25 13:14:00,
2013-02-25 07:19:00,59.4,58.8,29.81,NE,45,6.0,13.0,98,0.22,,,-99.99,0,WeatherLink 5.6,2013-02-25 13:19:00,
2013-02-25 07:25:00,59.4,58.8,29.81,ENE,67,5.0,7.0,98,0.19,,,-99.99,0,WeatherLink 5.6,2013-02-25 13:25:00,
2013-02-25 07:30:00,59.4,58.8,29.81,East,90,5.0,9.0,98,0.15,,,-99.99,0,WeatherLink 5.6,2013-02-25 13:30:00,
2013-02-25 07:35:00,59.4,58.8,29.79,NE,45,7.0,15.0,98,0.14,,,-99.99,0,WeatherLink 5.6,2013-02-25 13:35:00,
2013-02-25 07:41:00,59.2,58.6,29.79,ENE,67,7.0,12.0,98,0.14,,,-99.99,0,WeatherLink 5.6,2013-02-25 13:41:00,
2013-02-25 07:47:00,59.3,58.7,29.82,NNE,22,7.0,12.0,98,0.13,,,-99.99,0,WeatherLink 5.6,2013-02-25 13:47:00,
2013-02-25 07:53:00,59.4,58.8,29.84,NE,45,8.0,12.0,98,0.11,,,-99.99,0,WeatherLink 5.6,2013-02-25 13:53:00,
2013-02-25 07:59:00,59.4,58.8,29.80,East,90,6.0,9.0,98,0.07,,,-99.99,14,WeatherLink 5.6,2013-02-25 13:59:00,
2013-02-25 08:04:00,59.4,58.5,29.80,NE,45,6.0,11.0,97,0.06,,,-99.99,14,WeatherLink 5.6,2013-02-25 14:04:00,
2013-02-25 08:10:00,59.5,58.6,29.80,East,90,4.0,7.0,97,0.04,,,-99.99,51,WeatherLink 5.6,2013-02-25 14:10:00,
2013-02-25 08:16:00,59.6,59.0,29.80,East,90,7.0,10.0,98,0.03,,,-99.99,46,WeatherLink 5.6,2013-02-25 14:16:00,
2013-02-25 08:21:00,59.8,59.2,29.80,ENE,67,4.0,10.0,98,0.02,,,-99.99,26,WeatherLink 5.6,2013-02-25 14:21:00,
2013-02-25 08:27:00,59.9,59.0,29.80,ENE,67,7.0,13.0,97,0.01,,,-99.99,51,WeatherLink 5.6,2013-02-25 14:27:00,
2013-02-25 08:32:00,60.0,59.1,29.81,East,90,6.0,10.0,97,0.01,,,-99.99,42,WeatherLink 5.6,2013-02-25 14:32:00,
2013-02-25 08:38:00,60.0,59.1,29.82,ESE,112,3.0,7.0,97,0.00,,,-99.99,35,WeatherLink 5.6,2013-02-25 14:38:00,
2013-02-25 08:43:00,60.1,59.2,29.81,East,90,6.0,11.0,97,0.00,,,-99.99,32,WeatherLink 5.6,2013-02-25 14:43:00,
2013-02-25 08:49:00,60.1,59.2,29.81,ENE,67,6.0,10.0,97,0.02,,,-99.99,69,WeatherLink 5.6,2013-02-25 14:49:00,
2013-02-25 08:54:00,60.2,59.3,29.81,East,90,6.0,10.0,97,0.04,,,-99.99,107,WeatherLink 5.6,2013-02-25 14:54:00,
2013-02-25 08:59:00,60.2,59.3,29.82,NE,45,5.0,11.0,97,0.05,,,-99.99,57,WeatherLink 5.6,2013-02-25 14:59:00,
2013-02-25 09:05:00,60.2,59.3,29.81,East,90,6.0,9.0,97,0.05,,,-99.99,48,WeatherLink 5.6,2013-02-25 15:05:00,
2013-02-25 09:11:00,60.2,59.3,29.80,East,90,6.0,10.0,97,0.05,,,-99.99,72,WeatherLink 5.6,2013-02-25 15:11:00,
2013-02-25 09:17:00,60.3,59.2,29.81,East,90,3.0,7.0,96,0.06,,,-99.99,48,WeatherLink 5.6,2013-02-25 15:17:00,
2013-02-25 09:22:00,60.4,59.3,29.81,ENE,67,3.0,5.0,96,0.06,,,-99.99,28,WeatherLink 5.6,2013-02-25 15:22:00,
2013-02-25 09:27:00,60.4,59.3,29.82,NE,45,6.0,12.0,96,0.06,,,-99.99,46,WeatherLink 5.6,2013-02-25 15:27:00,
2013-02-25 09:33:00,60.4,59.3,29.82,ESE,112,4.0,6.0,96,0.06,,,-99.99,30,WeatherLink 5.6,2013-02-25 15:33:00,
2013-02-25 09:38:00,60.4,59.3,29.81,East,90,3.0,4.0,96,0.08,,,-99.99,25,WeatherLink 5.6,2013-02-25 15:38:00,
2013-02-25 09:43:00,60.4,59.3,29.81,ESE,112,3.0,5.0,96,0.10,,,-99.99,33,WeatherLink 5.6,2013-02-25 15:43:00,
2013-02-25 09:49:00,60.4,59.3,29.82,NE,45,1.0,2.0,96,0.08,,,-99.99,26,WeatherLink 5.6,2013-02-25 15:49:00,
2013-02-25 09:55:00,60.4,59.3,29.81,ENE,67,1.0,2.0,96,0.07,,,-99.99,42,WeatherLink 5.6,2013-02-25 15:55:00,
2013-02-25 10:01:00,60.5,59.4,29.81,ENE,67,4.0,7.0,96,0.09,,,-99.99,146,WeatherLink 5.6,2013-02-25 16:01:00,
2013-02-25 10:06:00,60.8,59.7,29.82,ENE,67,2.0,4.0,96,0.09,,,-99.99,134,WeatherLink 5.6,2013-02-25 16:06:00,
2013-02-25 10:11:00,61.0,59.9,29.83,ENE,67,3.0,6.0,96,0.09,,,-99.99,72,WeatherLink 5.6,2013-02-25 16:11:00,
2013-02-25 10:17:00,61.0,59.9,29.83,NNE,22,3.0,5.0,96,0.08,,,-99.99,46,WeatherLink 5.6,2013-02-25 16:17:00,
2013-02-25 10:22:00,61.0,59.9,29.84,NE,45,3.0,7.0,96,0.09,,,-99.99,60,WeatherLink 5.6,2013-02-25 16:22:00,
2013-02-25 10:28:00,61.1,60.0,29.82,ESE,112,4.0,7.0,96,0.09,,,-99.99,179,WeatherLink 5.6,2013-02-25 16:28:00,
2013-02-25 10:34:00,61.2,60.1,29.81,East,90,6.0,11.0,96,0.08,,,-99.99,160,WeatherLink 5.6,2013-02-25 16:34:00,
2013-02-25 10:39:00,61.3,60.2,29.80,East,90,5.0,8.0,96,0.07,,,-99.99,208,WeatherLink 5.6,2013-02-25 16:39:00,
2013-02-25 10:45:00,61.5,60.3,29.79,East,90,8.0,12.0,96,0.05,,,-99.99,192,WeatherLink 5.6,2013-02-25 16:45:00,
2013-02-25 10:51:00,61.5,60.1,29.79,East,90,5.0,9.0,95,0.04,,,-99.99,206,WeatherLink 5.6,2013-02-25 16:51:00,
2013-02-25 10:56:00,61.6,60.2,29.80,ESE,112,7.0,11.0,95,0.03,,,-99.99,134,WeatherLink 5.6,2013-02-25 16:56:00,
2013-02-25 11:01:00,61.4,60.0,29.80,SE,135,5.0,16.0,95,0.01,,,-99.99,95,WeatherLink 5.6,2013-02-25 17:01:00,
2013-02-25 11:07:00,61.3,59.9,29.81,East,90,7.0,10.0,95,0.01,,,-99.99,253,WeatherLink 5.6,2013-02-25 17:07:00,
2013-02-25 11:13:00,61.8,60.4,29.80,ESE,112,6.0,13.0,95,0.01,,,-99.99,315,WeatherLink 5.6,2013-02-25 17:13:00,
2013-02-25 11:18:00,62.0,60.3,29.80,ESE,112,9.0,13.0,94,0.01,,,-99.99,178,WeatherLink 5.6,2013-02-25 17:18:00,
2013-02-25 11:24:00,61.9,60.2,29.80,ESE,112,5.0,9.0,94,0.00,,,-99.99,197,WeatherLink 5.6,2013-02-25 17:24:00,
2013-02-25 11:29:00,61.8,59.8,29.79,ESE,112,8.0,11.0,93,0.00,,,-99.99,276,WeatherLink 5.6,2013-02-25 17:29:00,
2013-02-25 11:34:00,62.0,60.0,29.78,East,90,6.0,12.0,93,0.00,,,-99.99,278,WeatherLink 5.6,2013-02-25 17:34:00,
2013-02-25 11:39:00,62.2,60.2,29.79,ESE,112,6.0,10.0,93,0.00,,,-99.99,244,WeatherLink 5.6,2013-02-25 17:39:00,
2013-02-25 11:45:00,62.6,60.5,29.79,SE,135,7.0,11.0,93,0.00,,,-99.99,278,WeatherLink 5.6,2013-02-25 17:45:00,
2013-02-25 11:50:00,62.9,60.5,29.78,East,90,2.0,6.0,92,0.00,,,-99.99,332,WeatherLink 5.6,2013-02-25 17:50:00,
2013-02-25 11:55:00,63.2,60.5,29.77,East,90,3.0,5.0,91,0.00,,,-99.99,350,WeatherLink 5.6,2013-02-25 17:55:00,
2013-02-25 12:00:00,63.8,61.1,29.77,ESE,112,6.0,12.0,91,0.00,,,-99.99,468,WeatherLink 5.6,2013-02-25 18:00:00,
2013-02-25 12:05:00,64.1,60.8,29.77,ESE,112,9.0,11.0,89,0.00,,,-99.99,390,WeatherLink 5.6,2013-02-25 18:05:00,
2013-02-25 12:11:00,64.2,60.6,29.76,SE,135,6.0,10.0,88,0.00,,,-99.99,345,WeatherLink 5.6,2013-02-25 18:11:00,
2013-02-25 12:16:00,64.6,61.0,29.75,ESE,112,7.0,14.0,88,0.00,,,-99.99,410,WeatherLink 5.6,2013-02-25 18:16:00,
2013-02-25 12:22:00,65.0,61.0,29.75,ESE,112,5.0,9.0,87,0.00,,,-99.99,334,WeatherLink 5.6,2013-02-25 18:22:00,
2013-02-25 12:27:00,65.2,60.9,29.75,ESE,112,6.0,10.0,86,0.00,,,-99.99,239,WeatherLink 5.6,2013-02-25 18:27:00,
2013-02-25 12:32:00,65.0,60.7,29.75,ESE,112,3.0,7.0,86,0.00,,,-99.99,214,WeatherLink 5.6,2013-02-25 18:32:00,
2013-02-25 12:37:00,65.0,60.7,29.75,East,90,5.0,11.0,86,0.00,,,-99.99,262,WeatherLink 5.6,2013-02-25 18:37:00,
2013-02-25 12:43:00,65.1,60.5,29.75,East,90,5.0,8.0,85,0.00,,,-99.99,327,WeatherLink 5.6,2013-02-25 18:43:00,
2013-02-25 12:49:00,65.6,61.0,29.74,East,90,6.0,8.0,85,0.00,,,-99.99,230,WeatherLink 5.6,2013-02-25 18:49:00,
2013-02-25 12:54:00,65.5,60.5,29.74,ESE,112,7.0,12.0,84,0.00,,,-99.99,245,WeatherLink 5.6,2013-02-25 18:54:00,
2013-02-25 13:00:00,65.6,60.6,29.73,ENE,67,5.0,12.0,84,0.00,,,-99.99,348,WeatherLink 5.6,2013-02-25 19:00:00,
2013-02-25 13:06:00,66.3,61.3,29.73,East,90,4.0,7.0,84,0.00,,,-99.99,393,WeatherLink 5.6,2013-02-25 19:06:00,
2013-02-25 13:11:00,67.4,62.1,29.73,East,90,4.0,9.0,83,0.00,,,-99.99,406,WeatherLink 5.6,2013-02-25 19:11:00,
2013-02-25 13:17:00,67.5,61.5,29.72,East,90,5.0,7.0,81,0.00,,,-99.99,429,WeatherLink 5.6,2013-02-25 19:17:00,
2013-02-25 13:23:00,67.9,61.9,29.72,East,90,5.0,8.0,81,0.00,,,-99.99,715,WeatherLink 5.6,2013-02-25 19:23:00,
2013-02-25 13:29:00,67.7,61.0,29.72,SE,135,7.0,12.0,79,0.00,,,-99.99,445,WeatherLink 5.6,2013-02-25 19:29:00,
2013-02-25 13:34:00,67.7,61.3,29.71,East,90,5.0,10.0,80,0.00,,,-99.99,415,WeatherLink 5.6,2013-02-25 19:34:00,
2013-02-25 13:39:00,68.1,61.7,29.71,ESE,112,3.0,6.0,80,0.00,,,-99.99,362,WeatherLink 5.6,2013-02-25 19:39:00,
2013-02-25 13:45:00,67.7,61.3,29.71,ESE,112,6.0,10.0,80,0.00,,,-99.99,311,WeatherLink 5.6,2013-02-25 19:45:00,
2013-02-25 13:50:00,67.4,61.4,29.71,SE,135,5.0,10.0,81,0.00,,,-99.99,299,WeatherLink 5.6,2013-02-25 19:50:00,
2013-02-25 13:56:00,66.8,60.8,29.71,ESE,112,6.0,9.0,81,0.00,,,-99.99,269,WeatherLink 5.6,2013-02-25 19:56:00,
2013-02-25 14:02:00,66.0,61.0,29.70,ESE,112,7.0,11.0,84,0.00,,,-99.99,318,WeatherLink 5.6,2013-02-25 20:02:00,
2013-02-25 14:08:00,65.5,60.5,29.70,ESE,112,8.0,13.0,84,0.00,,,-99.99,336,WeatherLink 5.6,2013-02-25 20:08:00,
2013-02-25 14:13:00,65.3,60.7,29.70,ESE,112,6.0,8.0,85,0.00,,,-99.99,313,WeatherLink 5.6,2013-02-25 20:13:00,
2013-02-25 14:18:00,65.2,60.2,29.70,ESE,112,8.0,14.0,84,0.00,,,-99.99,295,WeatherLink 5.6,2013-02-25 20:18:00,
2013-02-25 14:24:00,64.8,60.2,29.70,ESE,112,8.0,14.0,85,0.00,,,-99.99,322,WeatherLink 5.6,2013-02-25 20:24:00,
2013-02-25 14:29:00,64.5,59.9,29.70,ESE,112,8.0,12.0,85,0.00,,,-99.99,244,WeatherLink 5.6,2013-02-25 20:29:00,
2013-02-25 14:35:00,64.1,59.8,29.70,ESE,112,12.0,16.0,86,0.00,,,-99.99,229,WeatherLink 5.6,2013-02-25 20:35:00,
2013-02-25 14:41:00,63.8,59.9,29.70,ESE,112,10.0,15.0,87,0.00,,,-99.99,116,WeatherLink 5.6,2013-02-25 20:41:00,
2013-02-25 14:47:00,63.5,59.9,29.70,SE,135,8.0,12.0,88,0.00,,,-99.99,47,WeatherLink 5.6,2013-02-25 20:47:00,
2013-02-25 14:52:00,63.1,59.5,29.70,SE,135,10.0,15.0,88,0.00,,,-99.99,69,WeatherLink 5.6,2013-02-25 20:52:00,
2013-02-25 14:57:00,62.9,59.6,29.70,ESE,112,6.0,10.0,89,0.00,,,-99.99,74,WeatherLink 5.6,2013-02-25 20:57:00,
2013-02-25 15:02:00,62.8,59.8,29.69,ESE,112,8.0,15.0,90,0.00,,,-99.99,58,WeatherLink 5.6,2013-02-25 21:02:00,
2013-02-25 15:07:00,62.6,59.6,29.70,ESE,112,8.0,14.0,90,0.00,,,-99.99,44,WeatherLink 5.6,2013-02-25 21:07:00,
2013-02-25 15:13:00,62.3,59.9,29.69,SE,135,6.0,10.0,92,0.01,,,-99.99,88,WeatherLink 5.6,2013-02-25 21:13:00,
2013-02-25 15:18:00,62.0,59.6,29.69,ESE,112,10.0,14.0,92,0.01,,,-99.99,88,WeatherLink 5.6,2013-02-25 21:18:00,
2013-02-25 15:23:00,61.9,59.9,29.68,ESE,112,5.0,7.0,93,0.01,,,-99.99,86,WeatherLink 5.6,2013-02-25 21:23:00,
2013-02-25 15:29:00,61.9,59.9,29.68,ESE,112,10.0,18.0,93,0.01,,,-99.99,79,WeatherLink 5.6,2013-02-25 21:29:00,
2013-02-25 15:35:00,61.9,59.9,29.68,SE,135,8.0,11.0,93,0.01,,,-99.99,81,WeatherLink 5.6,2013-02-25 21:35:00,
2013-02-25 15:40:00,62.0,60.0,29.68,ESE,112,10.0,17.0,93,0.01,,,-99.99,107,WeatherLink 5.6,2013-02-25 21:40:00,
2013-02-25 15:46:00,62.1,60.1,29.70,ESE,112,8.0,14.0,93,0.01,,,-99.99,58,WeatherLink 5.6,2013-02-25 21:46:00,
2013-02-25 15:52:00,62.0,60.0,29.69,ESE,112,9.0,14.0,93,0.01,,,-99.99,37,WeatherLink 5.6,2013-02-25 21:52:00,
2013-02-25 15:58:00,62.0,60.0,29.69,ESE,112,11.0,17.0,93,0.01,,,-99.99,53,WeatherLink 5.6,2013-02-25 21:58:00,
2013-02-25 16:03:00,62.0,60.0,29.68,SE,135,6.0,12.0,93,0.01,,,-99.99,40,WeatherLink 5.6,2013-02-25 22:03:00,
2013-02-25 16:09:00,61.9,59.9,29.68,SE,135,10.0,17.0,93,0.00,,,-99.99,23,WeatherLink 5.6,2013-02-25 22:09:00,
2013-02-25 16:14:00,61.9,59.9,29.69,ESE,112,10.0,18.0,93,0.00,,,-99.99,23,WeatherLink 5.6,2013-02-25 22:14:00,
2013-02-25 16:20:00,61.9,60.2,29.68,ESE,112,10.0,18.0,94,0.01,,,-99.99,19,WeatherLink 5.6,2013-02-25 22:20:00,
2013-02-25 16:26:00,61.8,60.1,29.68,ESE,112,7.0,13.0,94,0.01,,,-99.99,23,WeatherLink 5.6,2013-02-25 22:26:00,
2013-02-25 16:32:00,61.7,60.0,29.67,ESE,112,7.0,15.0,94,0.03,,,-99.99,26,WeatherLink 5.6,2013-02-25 22:32:00,
2013-02-25 16:37:00,61.7,60.3,29.68,SE,135,6.0,10.0,95,0.04,,,-99.99,7,WeatherLink 5.6,2013-02-25 22:37:00,
2013-02-25 16:43:00,61.6,60.2,29.69,SE,135,7.0,12.0,95,0.06,,,-99.99,5,WeatherLink 5.6,2013-02-25 22:43:00,
2013-02-25 16:48:00,61.6,60.2,29.68,ESE,112,7.0,10.0,95,0.13,,,-99.99,5,WeatherLink 5.6,2013-02-25 22:48:00,
2013-02-25 16:53:00,61.5,60.1,29.67,ESE,112,6.0,12.0,95,0.19,,,-99.99,5,WeatherLink 5.6,2013-02-25 22:53:00,
2013-02-25 16:59:00,61.5,60.3,29.66,ESE,112,7.0,12.0,96,0.22,,,-99.99,11,WeatherLink 5.6,2013-02-25 22:59:00,
2013-02-25 17:04:00,61.5,60.3,29.67,ESE,112,7.0,14.0,96,0.22,,,-99.99,7,WeatherLink 5.6,2013-02-25 23:04:00,
2013-02-25 17:10:00,61.5,60.3,29.66,East,90,6.0,11.0,96,0.23,,,-99.99,7,WeatherLink 5.6,2013-02-25 23:10:00,
2013-02-25 17:16:00,61.4,60.2,29.66,ESE,112,6.0,13.0,96,0.23,,,-99.99,5,WeatherLink 5.6,2013-02-25 23:16:00,
2013-02-25 17:21:00,61.4,60.2,29.66,ENE,67,7.0,10.0,96,0.22,,,-99.99,7,WeatherLink 5.6,2013-02-25 23:21:00,
2013-02-25 17:26:00,61.5,60.3,29.65,ESE,112,8.0,13.0,96,0.22,,,-99.99,5,WeatherLink 5.6,2013-02-25 23:26:00,
2013-02-25 17:32:00,61.4,60.2,29.64,ESE,112,5.0,9.0,96,0.20,,,-99.99,0,WeatherLink 5.6,2013-02-25 23:32:00,
2013-02-25 17:37:00,61.4,60.2,29.64,ESE,112,5.0,10.0,96,0.19,,,-99.99,0,WeatherLink 5.6,2013-02-25 23:37:00,
2013-02-25 17:43:00,61.4,60.5,29.63,ESE,112,4.0,7.0,97,0.18,,,-99.99,0,WeatherLink 5.6,2013-02-25 23:43:00,
2013-02-25 17:48:00,61.4,60.5,29.64,ESE,112,3.0,5.0,97,0.12,,,-99.99,0,WeatherLink 5.6,2013-02-25 23:48:00,
2013-02-25 17:54:00,61.5,60.6,29.63,ESE,112,6.0,13.0,97,0.05,,,-99.99,0,WeatherLink 5.6,2013-02-25 23:54:00,
2013-02-25 18:00:00,61.6,60.7,29.64,SE,135,8.0,13.0,97,0.03,,,-99.99,0,WeatherLink 5.6,2013-02-26 00:00:00,
2013-02-25 18:05:00,61.6,60.7,29.64,ESE,112,4.0,6.0,97,0.03,,,-99.99,0,WeatherLink 5.6,2013-02-26 00:05:00,
2013-02-25 18:11:00,61.6,60.7,29.63,ESE,112,5.0,8.0,97,0.02,,,-99.99,0,WeatherLink 5.6,2013-02-26 00:11:00,
2013-02-25 18:16:00,61.6,60.7,29.62,ESE,112,9.0,14.0,97,0.02,,,-99.99,0,WeatherLink 5.6,2013-02-26 00:16:00,
2013-02-25 18:22:00,61.7,60.8,29.62,SE,135,9.0,15.0,97,0.03,,,-99.99,0,WeatherLink 5.6,2013-02-26 00:22:00,
2013-02-25 18:27:00,61.8,60.9,29.62,ESE,112,7.0,10.0,97,0.03,,,-99.99,0,WeatherLink 5.6,2013-02-26 00:27:00,
2013-02-25 18:32:00,61.8,60.9,29.62,ESE,112,9.0,13.0,97,0.03,,,-99.99,0,WeatherLink 5.6,2013-02-26 00:32:00,
2013-02-25 18:38:00,61.8,60.9,29.62,ESE,112,6.0,9.0,97,0.03,,,-99.99,0,WeatherLink 5.6,2013-02-26 00:38:00,
2013-02-25 18:43:00,61.9,61.0,29.63,ESE,112,8.0,13.0,97,0.02,,,-99.99,0,WeatherLink 5.6,2013-02-26 00:43:00,
2013-02-25 18:48:00,61.9,61.0,29.62,SE,135,6.0,9.0,97,0.01,,,-99.99,0,WeatherLink 5.6,2013-02-26 00:48:00,
2013-02-25 18:54:00,62.0,61.1,29.62,ESE,112,7.0,11.0,97,0.01,,,-99.99,0,WeatherLink 5.6,2013-02-26 00:54:00,
2013-02-25 19:00:00,62.0,61.1,29.61,ESE,112,7.0,11.0,97,0.01,,,-99.99,0,WeatherLink 5.6,2013-02-26 01:00:00,
2013-02-25 19:06:00,62.1,61.2,29.63,ESE,112,4.0,8.0,97,0.01,,,-99.99,0,WeatherLink 5.6,2013-02-26 01:06:00,
2013-02-25 19:12:00,62.1,61.2,29.62,ESE,112,7.0,12.0,97,0.02,,,-99.99,0,WeatherLink 5.6,2013-02-26 01:12:00,
2013-02-25 19:17:00,62.0,61.1,29.61,ESE,112,6.0,11.0,97,0.03,,,-99.99,0,WeatherLink 5.6,2013-02-26 01:17:00,
2013-02-25 19:23:00,62.0,61.1,29.62,ESE,112,8.0,15.0,97,0.05,,,-99.99,0,WeatherLink 5.6,2013-02-26 01:23:00,
2013-02-25 19:29:00,62.0,61.1,29.62,ESE,112,5.0,8.0,97,0.05,,,-99.99,0,WeatherLink 5.6,2013-02-26 01:29:00,
2013-02-25 19:35:00,62.0,61.1,29.62,SE,135,8.0,11.0,97,0.05,,,-99.99,0,WeatherLink 5.6,2013-02-26 01:35:00,
2013-02-25 19:40:00,62.0,61.1,29.61,ESE,112,9.0,14.0,97,0.05,,,-99.99,0,WeatherLink 5.6,2013-02-26 01:40:00,
2013-02-25 19:46:00,62.1,61.2,29.62,ESE,112,9.0,16.0,97,0.05,,,-99.99,0,WeatherLink 5.6,2013-02-26 01:46:00,
2013-02-25 19:52:00,62.1,61.2,29.63,ESE,112,12.0,18.0,97,0.05,,,-99.99,0,WeatherLink 5.6,2013-02-26 01:52:00,
2013-02-25 19:58:00,62.2,61.3,29.63,ESE,112,9.0,13.0,97,0.05,,,-99.99,0,WeatherLink 5.6,2013-02-26 01:58:00,
2013-02-25 20:04:00,62.3,61.4,29.62,SE,135,7.0,14.0,97,0.05,,,-99.99,0,WeatherLink 5.6,2013-02-26 02:04:00,
2013-02-25 20:10:00,62.3,61.4,29.62,SE,135,12.0,19.0,97,0.04,,,-99.99,0,WeatherLink 5.6,2013-02-26 02:10:00,
2013-02-25 20:16:00,62.5,61.6,29.62,ESE,112,8.0,12.0,97,0.03,,,-99.99,0,WeatherLink 5.6,2013-02-26 02:16:00,
2013-02-25 20:22:00,62.7,61.8,29.62,ESE,112,9.0,16.0,97,0.01,,,-99.99,0,WeatherLink 5.6,2013-02-26 02:22:00,
2013-02-25 20:28:00,62.9,62.0,29.63,ESE,112,9.0,15.0,97,0.00,,,-99.99,0,WeatherLink 5.6,2013-02-26 02:28:00,
2013-02-25 20:34:00,63.0,62.1,29.63,SE,135,8.0,12.0,97,0.00,,,-99.99,0,WeatherLink 5.6,2013-02-26 02:34:00,
2013-02-25 20:40:00,63.2,62.3,29.64,SE,135,7.0,12.0,97,0.00,,,-99.99,0,WeatherLink 5.6,2013-02-26 02:40:00,
2013-02-25 20:46:00,63.3,62.4,29.63,ESE,112,9.0,13.0,97,0.02,,,-99.99,0,WeatherLink 5.6,2013-02-26 02:46:00,
2013-02-25 20:51:00,63.5,62.6,29.61,ESE,112,12.0,17.0,97,0.02,,,-99.99,0,WeatherLink 5.6,2013-02-26 02:51:00,
2013-02-25 20:57:00,63.5,62.6,29.61,ESE,112,11.0,17.0,97,0.02,,,-99.99,0,WeatherLink 5.6,2013-02-26 02:57:00,
2013-02-25 21:03:00,63.6,62.7,29.60,ESE,112,9.0,17.0,97,0.02,,,-99.99,0,WeatherLink 5.6,2013-02-26 03:03:00,
2013-02-25 21:09:00,63.7,62.8,29.61,ESE,112,8.0,14.0,97,0.02,,,-99.99,0,WeatherLink 5.6,2013-02-26 03:09:00,
2013-02-25 21:15:00,63.9,63.0,29.61,SSE,157,6.0,11.0,97,0.02,,,-99.99,0,WeatherLink 5.6,2013-02-26 03:15:00,
2013-02-25 21:20:00,64.2,63.3,29.61,SSE,157,9.0,15.0,97,0.02,,,-99.99,0,WeatherLink 5.6,2013-02-26 03:20:00,
2013-02-25 21:26:00,64.7,63.8,29.60,SSE,157,7.0,13.0,97,0.03,,,-99.99,0,WeatherLink 5.6,2013-02-26 03:26:00,
2013-02-25 21:32:00,64.8,63.9,29.60,SSE,157,7.0,14.0,97,0.03,,,-99.99,0,WeatherLink 5.6,2013-02-26 03:32:00,
2013-02-25 21:37:00,65.0,64.1,29.61,SE,135,8.0,20.0,97,0.04,,,-99.99,0,WeatherLink 5.6,2013-02-26 03:37:00,
2013-02-25 21:43:00,65.3,64.4,29.60,SE,135,6.0,10.0,97,0.04,,,-99.99,0,WeatherLink 5.6,2013-02-26 03:43:00,
2013-02-25 21:49:00,65.1,64.2,29.61,SE,135,4.0,7.0,97,0.06,,,-99.99,0,WeatherLink 5.6,2013-02-26 03:49:00,
2013-02-25 21:55:00,64.9,63.7,29.62,SSE,157,6.0,9.0,96,0.09,,,-99.99,0,WeatherLink 5.6,2013-02-26 03:55:00,
2013-02-25 22:02:00,64.7,63.8,29.61,ESE,112,4.0,7.0,97,0.13,,,-99.99,0,WeatherLink 5.6,2013-02-26 04:02:00,
2013-02-25 22:08:00,64.7,63.8,29.61,SSE,157,3.0,5.0,97,0.17,,,-99.99,0,WeatherLink 5.6,2013-02-26 04:08:00,
2013-02-25 22:14:00,64.9,64.0,29.61,SE,135,3.0,4.0,97,0.19,,,-99.99,0,WeatherLink 5.6,2013-02-26 04:14:00,
2013-02-25 22:19:00,64.9,64.0,29.58,SE,135,5.0,8.0,97,0.21,,,-99.99,0,WeatherLink 5.6,2013-02-26 04:19:00,
2013-02-25 22:26:00,64.7,63.8,29.58,SE,135,3.0,5.0,97,0.23,,,-99.99,0,WeatherLink 5.6,2013-02-26 04:26:00,
2013-02-25 22:31:00,64.9,64.0,29.57,ESE,112,4.0,7.0,97,0.23,,,-99.99,0,WeatherLink 5.6,2013-02-26 04:31:00,
2013-02-25 22:36:00,65.0,64.1,29.58,SSE,157,5.0,8.0,97,0.23,,,-99.99,0,WeatherLink 5.6,2013-02-26 04:36:00,
2013-02-25 22:42:00,65.1,64.2,29.59,SE,135,4.0,5.0,97,0.27,,,-99.99,0,WeatherLink 5.6,2013-02-26 04:42:00,
2013-02-25 22:48:00,65.2,64.3,29.58,ESE,112,7.0,12.0,97,0.38,,,-99.99,0,WeatherLink 5.6,2013-02-26 04:48:00,
2013-02-25 22:53:00,65.2,64.3,29.58,SE,135,6.0,9.0,97,0.47,,,-99.99,0,WeatherLink 5.6,2013-02-26 04:53:00,
2013-02-25 22:58:00,65.1,64.2,29.57,SSE,157,7.0,13.0,97,0.49,,,-99.99,0,WeatherLink 5.6,2013-02-26 04:58:00,
2013-02-25 23:00:00,65.1,64.2,29.57,SE,135,6.0,10.0,97,0.51,,,-99.99,0,WeatherLink 5.6,2013-02-26 05:00:00,
2013-02-25 23:02:00,65.1,64.2,29.57,SE,135,5.0,8.0,97,0.51,,,-99.99,0,WeatherLink 5.6,2013-02-26 05:02:00,
2013-02-25 23:03:00,65.1,64.2,29.57,SE,135,6.0,9.0,97,0.52,,,-99.99,0,WeatherLink 5.6,2013-02-26 05:03:00,
2013-02-25 23:09:00,65.0,64.1,29.57,South,180,2.0,7.0,97,0.51,,,-99.99,0,WeatherLink 5.6,2013-02-26 05:09:00,
2013-02-25 23:14:00,65.0,64.1,29.56,SSE,157,5.0,8.0,97,0.56,,,-99.99,0,WeatherLink 5.6,2013-02-26 05:14:00,
2013-02-25 23:20:00,65.0,64.1,29.55,ESE,112,5.0,10.0,97,0.57,,,-99.99,0,WeatherLink 5.6,2013-02-26 05:20:00,
2013-02-25 23:25:00,64.9,64.0,29.55,ESE,112,4.0,9.0,97,0.59,,,-99.99,0,WeatherLink 5.6,2013-02-26 05:25:00,
2013-02-25 23:30:00,64.9,64.0,29.56,South,180,3.0,7.0,97,0.65,,,-99.99,0,WeatherLink 5.6,2013-02-26 05:30:00,
2013-02-25 23:35:00,65.0,64.4,29.55,South,180,4.0,7.0,98,0.73,,,-99.99,0,WeatherLink 5.6,2013-02-26 05:35:00,
2013-02-25 23:41:00,65.1,64.5,29.55,SE,135,5.0,8.0,98,0.76,,,-99.99,0,WeatherLink 5.6,2013-02-26 05:41:00,
2013-02-25 23:47:00,65.1,64.5,29.56,SSE,157,5.0,9.0,98,0.72,,,-99.99,0,WeatherLink 5.6,2013-02-26 05:47:00,
2013-02-25 23:52:00,65.3,64.7,29.55,SSE,157,3.0,6.0,98,0.69,,,-99.99,0,WeatherLink 5.6,2013-02-26 05:52:00,
2013-02-25 23:58:00,65.6,65.0,29.55,SSE,157,4.0,7.0,98,0.74,,,-99.99,0,WeatherLink 5.6,2013-02-26 05:58:00,